Regional Weather Roundup
Issued by NWS Green Bay, WI

Home | Current Version | Previous Version | Graphics & Text | Print | Product List | Glossary Off
Versions: 1 2 3 4 5 6 7 8 9 10 11 12 13 14 15 16 17 18 19 20 21 22 23 24 25 26 27 28 29 30 31 32 33 34 35 36 37 38 39 40 41 42 43 44 45 46 47 48 49 50

000
ASUS43 KGRB 221011
RWRGRB

NORTH-CENTRAL AND NORTHEAST WISCONSIN REGIONAL WEATHER ROUNDUP
NATIONAL WEATHER SERVICE GREEN BAY WI
500 AM CDT FRI SEP 22 2017

WIZ005-009-010>012-018-019-221100-
NORTH CENTRAL WISCONSIN

CITY           SKY/WX    TMP DP  RH WIND       PRES   REMARKS
IRONWOOD       CLOUDY    70  66  87 SW8G17    29.93R
MANITOWISH WTR PTCLDY    66  66 100 SE7       29.96S
ARBOR VITAE    CLEAR     69  67  91 S5        29.99R
EAGLE RIVER    MOCLDY    67  66  97 S3        29.99S
LAND O LAKES   MOCLDY    68  65  91 CALM      30.01R
RHINELANDER    MOCLDY    70  67  90 S6        30.00S
PHILLIPS       CLEAR     68  67  96 S7        29.95R
ANTIGO         CLEAR     65  65 100 S6        30.02S FOG
TOMAHAWK       CLEAR     65  63  94 CALM      29.99R
MERRILL        MOCLDY    68  67  97 S5        29.99S
$$

WIZ013-073-221100-
NORTHEAST WISCONSIN

CITY           SKY/WX    TMP DP  RH WIND       PRES   REMARKS
IRON MOUNTAIN  FOG       64  62  93 SE6       29.99S VSB 1
MARINETTE      FOG       64  63  94 CALM      30.01R VSB 1/2
OCONTO         PTCLDY    61  60  97 CALM      30.00R
$$

WIZ017-030-035>037-045-221100-
CENTRAL WISCONSIN

CITY           SKY/WX    TMP DP  RH WIND       PRES   REMARKS
MEDFORD        MOCLDY    66  64  94 S9        29.97S
WAUSAU         MOCLDY    66  65  96 SE6       29.98S
MOSINEE        PTCLDY    64  64 100 SE6       30.01R
MARSHFIELD     CLOUDY    69  65  86 S7        29.98S
WISC RAPIDS    CLEAR     67  66  97 S3        30.00R
STEVENS POINT  CLEAR     62  62 100 CALM      30.01R
WAUPACA        CLEAR     66  65  99 CALM      30.01R FOG
SHAWANO        FOG       66  64  95 CALM      30.00S VSB 3/4
CLINTONVILLE   PTCLDY    63  61  94 CALM      30.00S FOG
WAUTOMA        MOCLDY    63  62  97 CALM      30.00S
$$

WIZ038-039-048-051-221100-
FOX VALLEY

CITY           SKY/WX    TMP DP  RH WIND       PRES   REMARKS
NWS GREEN BAY  CLEAR     69  68  96 S5        30.01R FOG
APPLETON       CLEAR     68  68 100 CALM      30.00S FOG
OSHKOSH        CLEAR     69  67  93 S6        30.01R
FOND DU LAC    CLEAR     69  65  86 S6        30.02R
$$

WIZ022-050-052-221100-
EAST CENTRAL WISCONSIN

CITY           SKY/WX    TMP DP  RH WIND       PRES   REMARKS
EPHRAIM        FAIR      67  66  97 S5        30.01R FOG
WASHINGTON ISL FAIR      66  65  97 S5        30.01R FOG
STURGEON BAY   CLEAR     69  67  93 S8        30.00S FOG
MANITOWOC      CLEAR     65  64  97 SE5       30.03R FOG
SHEBOYGAN      FOG       64  64 100 CALM      30.03R VSB 1/4
$$

LMZ563-521-522-541>543-221100-
LAKESHORE

STATION/POSITION TIME  TEMP    WIND        PRES    VSBY  WAVE
                       AIR SEA DIR/SP/G                  HT/PER
                 (UTC) (F)     (DEG/KT/KT) (MB)    (MI)  (FT/S)
SHEBOYGAN LKSHOR 1000   69     170/  8/  8 1016.4R
KEWAUNEE LKSHORE 0942   63     190/  5/  6 1015.7R
NORTHPORT PIER   0940   67     150/  5/  9 1015.9R
N MID LAKE BUOY  0950   69 66  170/  8/ 10 1016.7R         0
S GREEN BAY BUOY 1000   69 67  200/  6/  6 1015.6
SISTER BAY LKSHO 0919   68     130/  3/  5   N/A
MENOMINEE LKSHOR 0942   71     210/  3/  5 1015.5R
$$




USA.gov is the U.S. government's official web portal to all federal, state and local government web resources and services.